Lid_Strength_Index
5 5 6 6 7 8 8 9 7 5 4 6 8 9 9 9 7 7 7 7 8 8 9 9 9 9 8 6 7 8 7 8 10 9 8 7 7 7 8 11 12 11 12 11
5 5 5 6 7 7 9 9 8 4 5 9 9 9 9 8 9 9 8 9 8 8 8 9 9 8 6 6 6 7 8 9 11 10 9 9 9 8 8 8 9 11 12 10
5 5 5 6 7 7 8 7 8 7 7 8 9 10 10 10 8 9 9 9 8 8 8 8 9 8 6 6 6 6 5 8 10 11 10 8 10 9 9 9 10 10 10 9
5 5 5 6 6 7 7 8 10 10 10 9 10 10 10 11 10 9 9 9 9 9 9 9 9 8 7 7 6 6 7 10 9 8 8 9 9 9 9 10 9 10 8 9
5 5 5 6 7 8 8 9 10 9 9 11 11 12 11 11 11 10 10 10 9 9 9 9 10 8 8 8 7 7 7 10 10 11 9 9 10 9 8 9 9 9 9 8
6 6 6 6 7 8 10 9 9 10 12 11 11 11 11 11 10 9 9 9 9 10 9 8 7 7 8 8 8 8 8 9 11 13 10 10 12 10 9 8 7 8 9 7
6 6 6 6 6 8 9 9 10 10 12 11 11 11 11 11 10 10 9 8 9 8 6 6 8 8 8 8 7 7 8 9 10 12 11 16 9 7 7 8 8 6 6 6
6 6 6 6 6 7 9 9 10 10 12 11 11 11 11 10 9 10 9 8 7 6 7 8 9 10 9 8 7 7 7 8 11 13 13 11 9 8 9 10 9 8 8 7
6 6 6 6 6 6 8 9 9 9 11 12 11 11 10 11 10 10 9 6 5 6 7 9 12 13 11 11 10 8 8 8 10 11 14 16 9 6 6 7 12 7 7 7
7 6 6 6 6 6 8 8 8 8 11 9 9 10 10 9 9 9 8 8 7 6 8 11 12 12 9 12 11 11 10 10 12 12 13 11 8 7 6 13 11 7 6 6
7 6 6 6 6 6 7 8 7 8 10 10 8 8 8 8 8 10 8 8 8 7 10 11 11 11 10 11 9 10 11 11 12 12 13 15 7 7 11 8 6 6 6 6
6 6 6 6 6 5 7 9 7 7 9 9 7 6 5 5 5 6 6 7 7 6 9 9 9 11 10 11 13 9 13 10 11 11 10 7 6 6 5 5 6 6 6 5
6 6 6 6 5 5 6 7 7 8 10 9 9 7 5 4 4 3 8 6 5 6 4 6 8 11 9 12 11 10 9 8 10 10 7 7 6 4 5 5 5 4 4 4
5 6 5 5 5 5 6 7 7 7 8 11 8 5 5 3 4 4 4 5 5 5 5 6 7 9 7 9 9 10 8 8 9 9 7 6 5 5 5 4 4 4 4 4
5 5 5 5 5 5 6 6 6 5 8 10 8 5 4 4 4 4 4 5 5 6 6 7 8 6 7 7 7 9 6 8 10 10 6 7 6 4 3 4 4 4 4 4
5 4 4 5 5 6 7 7 5 5 5 8 10 5 5 4 4 4 5 5 5 5 6 7 6 4 7 9 10 6 5 5 4 7 4 4 4 4 3 4 4 3 4 3
4 4 4 4 4 5 8 8 5 4 5 7 9 8 5 5 4 4 5 5 5 5 7 7 7 6 6 8 11 6 5 4 4 4 4 6 5 5 3 3 3 3 3 3
4 4 4 4 3 4 6 4 4 4 7 7 9 9 7 4 6 7 4 6 5 5 6 6 7 6 7 10 7 5 5 5 5 4 4 4 4 3 3 3 3 4 4 4
4 4 4 5 5 7 5 2 3 4 5 8 8 10 10 5 5 5 5 5 9 5 8 7 7 8 11 8 7 6 5 5 5 5 4 4 5 4 4 4 4 5 5 4
4 5 6 7 5 2 2 4 6 6 6 7 9 8 10 7 7 8 7 7 9 11 8 6 9 9 6 5 5 5 5 5 4 6 7 6 6 5 5 4 4 4 4 4
4 6 6 4 3 3 5 7 8 7 9 7 7 8 9 5 9 9 7 9 8 13 10 10 11 12 8 6 6 5 4 4 4 4 4 4 4 5 5 4 4 4 4 4
5 5 5 5 5 6 8 9 8 9 10 7 8 7 6 6 5 9 8 10 10 13 8 11 13 10 7 6 6 5 5 4 4 4 4 4 4 4 4 4 4 4 3 3
4 6 7 7 7 11 12 12 11 10 7 7 7 8 6 6 6 8 9 11 12 8 12 13 11 8 7 6 5 5 4 4 4 4 4 3 4 3 4 4 3 3 3 3
7 8 12 10 10 9 9 9 8 6 6 6 6 7 8 7 9 9 12 10 10 13 15 14 10 8 7 6 5 5 5 4 4 4 4 4 4 4 4 3 3 3 3 3
8 8 12 9 7 7 6 5 6 5 5 6 7 7 7 9 10 9 10 12 14 13 13 10 8 6 6 6 5 5 5 5 5 4 4 4 4 4 4 3 3 3 3 3
8 9 10 7 8 7 7 6 6 4 5 5 6 8 10 11 10 12 12 13 14 12 9 7 6 6 6 6 5 5 4 4 4 4 4 4 4 4 4 3 3 3 3 3
10 9 7 7 7 8 7 6 6 4 6 8 8 11 12 9 11 12 10 12 10 8 7 6 6 6 6 5 5 4 4 4 4 4 4 4 3 3 3 4 3 3 3 3